TimeEST,TemperatureF,Dew PointF,Humidity,Sea Level PressureIn,VisibilityMPH,Wind Direction,Wind SpeedMPH,Gust SpeedMPH,PrecipitationIn,Events,Conditions,WindDirDegrees,DateUTC
12:53 AM,46.0,34.0,63,30.24,10.0,North,9.2,18.4,N/A,,Overcast,360,2013-01-18 05:53:00
1:42 AM,46.4,33.8,62,30.26,10.0,North,10.4,-,N/A,,Overcast,10,2013-01-18 06:42:00
1:53 AM,46.0,34.0,63,30.26,10.0,North,11.5,-,N/A,,Overcast,10,2013-01-18 06:53:00
2:45 AM,44.6,35.6,71,30.27,10.0,NNE,12.7,19.6,N/A,,Scattered Clouds,20,2013-01-18 07:45:00
2:53 AM,45.0,35.1,68,30.27,10.0,NNE,10.4,-,N/A,,Partly Cloudy,20,2013-01-18 07:53:00
3:53 AM,43.0,35.1,74,30.28,10.0,North,6.9,-,N/A,,Clear,360,2013-01-18 08:53:00
4:53 AM,41.0,35.1,79,30.30,10.0,NNW,3.5,-,N/A,,Clear,340,2013-01-18 09:53:00
5:53 AM,37.9,34.0,86,30.32,10.0,NNW,3.5,-,N/A,,Clear,330,2013-01-18 10:53:00
6:53 AM,35.6,32.0,87,30.35,10.0,NNW,5.8,-,N/A,,Clear,340,2013-01-18 11:53:00
7:53 AM,37.0,33.1,86,30.39,10.0,Calm,Calm,-,N/A,,Clear,0,2013-01-18 12:53:00
8:53 AM,42.1,37.0,82,30.41,10.0,North,5.8,-,N/A,,Clear,350,2013-01-18 13:53:00
9:53 AM,46.9,37.0,68,30.43,10.0,NE,12.7,-,N/A,,Clear,40,2013-01-18 14:53:00
10:53 AM,51.1,37.0,59,30.44,10.0,NE,12.7,-,N/A,,Clear,50,2013-01-18 15:53:00
11:53 AM,55.0,36.0,49,30.43,10.0,NE,9.2,-,N/A,,Clear,50,2013-01-18 16:53:00
12:53 PM,57.9,35.1,42,30.39,10.0,Variable,6.9,-,N/A,,Clear,0,2013-01-18 17:53:00
1:53 PM,59.0,39.0,48,30.36,10.0,SSE,6.9,-,N/A,,Clear,150,2013-01-18 18:53:00
2:53 PM,61.0,35.1,38,30.35,10.0,NE,8.1,-,N/A,,Clear,50,2013-01-18 19:53:00
3:53 PM,62.1,32.0,32,30.34,10.0,NE,11.5,18.4,N/A,,Clear,40,2013-01-18 20:53:00
4:53 PM,62.1,30.0,30,30.35,10.0,NE,10.4,-,N/A,,Clear,40,2013-01-18 21:53:00
5:53 PM,57.9,30.9,36,30.37,10.0,NE,6.9,-,N/A,,Clear,50,2013-01-18 22:53:00
6:53 PM,53.1,33.1,47,30.39,10.0,NE,5.8,-,N/A,,Clear,40,2013-01-18 23:53:00
7:53 PM,50.0,33.1,52,30.40,10.0,NE,4.6,-,N/A,,Clear,40,2013-01-19 00:53:00
8:53 PM,48.9,34.0,56,30.41,10.0,ENE,4.6,-,N/A,,Partly Cloudy,60,2013-01-19 01:53:00
9:53 PM,50.0,34.0,54,30.40,10.0,NE,6.9,-,N/A,,Overcast,50,2013-01-19 02:53:00
10:53 PM,51.1,33.1,50,30.40,10.0,ENE,8.1,-,N/A,,Overcast,60,2013-01-19 03:53:00
11:53 PM,50.0,33.1,52,30.38,10.0,NE,8.1,-,N/A,,Mostly Cloudy,50,2013-01-19 04:53:00